PROFILE

 METAR AND TAF INFORMATION
ADDS - METARS form results

(0433 UTC 28 November 2022)
http://aviationweather.gov/metar/data/
 
LFKJ 280430Z AUTO 04007KT CAVOK 07/04 Q1018 NOSIG
LFKJ 280400Z AUTO 04006KT 9999 FEW044 OVC190 08/03 Q1019 NOSIG
TAF LFKJ 280200Z 2803/2903 04006KT 9999 FEW040 BECMG 2823/2901 SCT030TCU BKN100 

 AIRPORT MAP

 RUNWAY INFORMATION
Runway 02 Runway length 7897 ft Runway width 148 ft
Runway elevation 15 ft Runway displaced threshold 0 ft Runway heading 25
Runway 20 Runway length 7897 ft Runway width 148 ft
Runway elevation 18 ft Runway displaced threshold 744 ft Runway heading 205

 AIRPORT FREQUENCIES
Type AFIS Name AFIS Frequency 119.825 MHZ
Type APP Name AJACCIO AP Frequency 121.05 MHZ
Type ATIS Name AJACCIO AT Frequency 126.925 MHZ
Type GND Name AJACCIO GN Frequency 121.7 MHZ
Type TWR Name AJACCIO TW Frequency 118.075 MHZ

 AIRPORT NEAR NAVIGATION AIDS
Type NDB Name Ajaccio/Campo Dell Oro Frequency 341 KHZ